Probability
55 55 49 42 40 39 37 36 39 48 56 60 59 58 58 55 47 42 40 36 33 35 37 39 40 43 40 34 28 24 18 14 11 11 11 7 2 1 2 2 1 0 1
48 49 49 46 45 46 46 46 50 57 62 64 65 66 62 53 43 40 39 34 30 30 31 33 34 35 31 25 21 18 14 10 7 7 8 5 1 0 1 1 0 0 1
43 42 43 47 49 52 55 58 61 67 70 69 68 68 63 50 38 34 32 27 21 20 22 23 23 21 18 14 11 9 7 4 3 3 4 2 1 0 0 0 0 0 1
38 35 35 39 45 51 56 59 62 66 69 68 64 62 56 44 31 25 21 16 11 10 13 13 11 9 7 5 3 2 1 1 2 2 2 1 0 0 0 0 0 0 0
27 25 25 28 33 39 45 49 52 54 56 55 53 50 43 31 20 15 11 8 5 5 6 6 4 3 2 1 0 0 0 1 1 1 1 0 0 0 0 0 0 0 0
15 14 15 17 19 22 27 31 33 33 34 35 34 32 27 19 12 9 6 4 3 3 3 2 0 0 0 0 0 0 0 0 0 0 0 0 0 0 0 0 0 0 0
8 9 9 9 8 9 12 14 14 14 15 16 17 16 14 11 8 6 3 2 1 1 1 0 0 0 0 0 0 0 0 0 0 0 0 0 0 0 0 0 0 0 0
5 5 5 4 3 3 4 5 4 4 4 6 6 6 6 5 4 3 1 0 0 0 0 0 0 0 0 0 0 0 0 0 0 0 0 0 0 0 0 0 0 0 0
3 3 3 2 2 1 1 2 2 1 1 1 1 1 1 1 1 1 0 0 0 0 0 0 0 0 0 0 0 0 0 0 0 0 0 0 0 0 0 0 0 0 0
1 1 1 1 1 0 0 1 1 0 0 0 0 0 0 0 0 0 0 0 0 0 0 0 0 0 0 0 0 0 0 0 0 0 0 0 0 0 0 0 0 0 0
0 0 0 0 0 0 0 0 0 0 0 0 0 0 0 0 0 0 0 0 0 0 0 0 0 0 0 0 0 0 0 0 0 0 0 0 0 0 0 0 0 0 0
0 0 0 0 0 0 0 0 0 0 0 0 0 0 0 0 0 0 0 0 0 0 0 0 0 0 0 0 0 0 0 0 0 0 0 0 0 0 0 0 0 0 0
0 0 0 0 0 0 0 0 0 0 0 0 0 0 0 0 0 0 0 0 0 0 0 0 0 0 0 0 0 0 0 0 0 0 0 0 0 0 0 0 0 0 0
0 0 0 0 0 0 0 0 0 0 0 0 0 0 0 0 0 0 0 0 0 0 0 0 0 0 0 0 0 0 0 0 0 0 0 0 0 0 0 0 0 0 0
0 0 0 0 0 0 0 0 0 0 0 0 0 0 0 0 0 0 0 0 0 0 0 0 0 0 0 0 0 0 0 0 0 0 0 0 0 0 0 0 0 0 0
0 0 0 0 0 0 0 0 0 0 0 0 0 0 0 0 0 0 0 0 0 0 0 0 0 0 0 0 0 0 0 0 0 0 0 0 0 0 0 0 0 0 0
0 0 0 0 0 0 0 0 0 0 0 0 0 0 0 0 0 0 0 0 0 0 0 0 0 0 0 0 0 0 0 0 0 0 0 0 0 0 0 0 0 0 0
0 0 0 0 0 0 0 0 0 0 0 0 0 0 0 0 0 0 0 0 0 0 0 0 0 0 0 0 0 0 0 0 0 0 0 0 0 0 0 0 0 0 0
0 0 0 0 0 0 0 0 0 0 0 0 0 0 0 0 0 0 0 0 0 0 0 0 0 0 0 0 0 0 0 0 0 0 0 0 0 0 0 0 0 0 0
0 0 0 0 0 0 0 0 0 0 0 0 0 0 0 0 0 0 0 0 0 0 0 0 0 0 0 0 0 0 0 0 0 0 0 0 0 0 0 0 0 0 0
0 0 0 0 0 0 0 0 0 0 0 0 0 0 0 0 0 0 0 0 0 0 0 0 0 0 0 0 0 0 0 0 0 0 0 0 0 0 0 0 0 0 0
0 0 0 0 0 0 0 0 0 0 0 0 0 0 0 0 0 0 0 0 0 0 0 0 0 0 0 0 0 0 0 0 0 0 0 0 0 0 0 0 0 0 0
0 0 0 0 0 0 0 0 0 0 0 0 0 0 0 0 0 0 0 0 0 0 0 0 0 0 0 0 0 0 0 0 0 0 0 0 0 0 0 0 0 0 0
0 0 0 0 0 0 0 0 0 0 0 0 0 0 0 0 0 0 0 0 0 0 0 0 0 0 0 0 0 0 0 0 0 0 0 0 0 0 0 0 0 0 0
0 0 0 0 0 0 0 0 0 0 0 0 0 0 0 0 0 0 0 0 0 0 0 0 0 0 0 0 0 0 0 0 0 0 0 0 0 0 0 0 0 0 0
0 0 0 0 0 0 0 0 0 0 0 0 0 0 0 0 0 0 0 0 0 0 0 0 0 0 0 0 0 0 0 0 0 0 0 0 0 0 0 0 0 0 0
Wind_Speed
7 5 4 4 4 5 7 8 9 9 9 7 7 7 6 4 3 2 2 2 2 2 2 1 1 1 1 2 2 1 2 1 1 3 3 3 2 1 1 2 2 2 2
8 7 6 5 4 4 4 5 7 8 9 7 6 5 5 4 4 3 3 3 2 2 2 2 1 1 1 1 2 2 2 1 1 2 3 3 3 3 1 1 1 2 2
8 8 7 7 6 4 2 2 3 4 6 7 6 6 5 4 4 4 4 5 5 5 5 4 2 2 1 0 0 1 2 1 1 1 3 3 3 1 3 1 1 1 2
9 9 8 8 8 6 5 4 3 3 3 5 7 9 6 5 4 5 6 8 8 9 8 7 6 5 4 3 3 2 2 1 1 1 1 2 3 3 1 2 1 1 1
10 10 10 10 9 8 8 7 7 7 6 4 5 6 6 6 6 7 9 9 9 10 10 9 8 7 6 7 7 6 5 3 3 2 1 1 1 2 3 2 1 1 1
10 11 11 11 11 11 11 10 11 11 9 8 8 9 10 10 10 9 9 8 7 8 11 10 9 8 7 7 7 7 8 6 6 4 4 3 2 3 3 3 3 3 2
11 11 12 12 12 12 12 12 13 13 12 12 11 11 11 11 11 10 10 9 7 8 9 9 9 8 7 7 7 8 8 8 7 5 4 4 3 3 4 4 4 5 4
11 12 12 11 12 13 12 12 14 14 14 14 14 13 12 10 10 11 10 10 8 8 9 9 9 9 9 8 7 7 7 6 6 6 5 3 4 4 4 5 6 7 6
11 12 12 12 13 13 13 13 15 15 15 15 16 15 15 13 13 12 11 9 8 8 10 10 10 10 9 9 7 7 7 6 6 5 5 5 4 4 5 5 5 7 8
12 12 12 13 13 13 14 15 15 15 15 15 14 13 14 13 13 12 13 11 10 9 10 10 10 9 9 8 7 7 7 6 6 5 5 6 5 5 5 5 5 6 8
12 12 12 12 12 13 13 13 14 15 14 14 14 14 13 13 12 11 12 11 10 10 10 10 9 9 9 8 7 7 7 7 6 6 6 6 6 6 6 5 6 6 6
12 12 12 12 12 13 13 13 13 14 13 13 13 13 12 12 12 12 11 10 10 10 9 9 9 9 9 8 8 8 7 7 7 7 7 7 6 7 7 6 7 6 6
13 12 12 12 12 12 12 12 12 12 12 12 13 13 12 11 11 10 10 10 10 9 9 9 9 8 8 7 7 7 7 7 7 7 7 7 7 7 7 7 7 6 6
13 12 11 11 11 11 11 11 11 11 11 12 12 12 11 10 10 10 9 9 9 8 8 8 7 7 7 8 8 7 7 7 7 7 7 7 7 8 9 7 7 7 8
13 12 11 11 10 10 10 10 11 10 10 11 11 11 10 9 9 9 8 8 7 7 7 6 6 6 6 9 10 9 8 8 8 7 7 7 6 7 8 9 10 10 9
13 12 12 11 11 10 10 10 10 9 9 10 10 9 9 9 8 8 7 7 6 6 6 6 6 7 8 7 8 11 10 8 8 8 8 7 4 5 7 8 10 11 11
13 12 11 10 10 9 9 9 9 8 9 9 9 8 8 8 7 6 6 6 6 5 5 6 6 7 8 6 7 10 11 9 8 8 8 7 6 7 9 9 11 11 11
13 11 9 9 9 9 8 8 8 8 8 8 8 7 7 7 6 6 6 5 5 5 5 5 6 6 7 6 8 13 10 7 7 7 7 8 8 8 10 13 13 11 8
13 11 10 9 8 8 8 8 8 8 7 7 7 6 6 5 5 5 5 4 4 4 4 5 6 6 5 7 8 13 9 6 8 7 7 7 8 8 10 12 12 11 9
12 11 10 10 8 8 7 7 7 7 7 6 6 5 4 4 4 4 3 3 3 4 4 5 5 6 6 5 6 12 8 8 8 7 6 2 6 10 11 11 11 11 10
12 11 10 9 8 7 6 7 7 6 6 5 4 3 3 2 2 2 2 2 3 3 4 4 4 4 5 3 3 8 8 9 9 7 7 6 8 11 12 11 10 9 11
12 10 9 8 7 6 6 7 6 5 4 3 3 2 2 2 1 1 1 2 3 2 2 3 3 3 3 4 4 5 7 8 9 7 7 7 11 14 14 10 8 12 12
11 9 9 9 7 6 5 6 5 4 3 2 2 2 1 1 1 1 1 1 2 3 3 4 4 4 4 2 2 5 8 9 8 6 8 11 14 14 9 7 10 11 7
10 9 9 9 7 6 5 4 3 2 1 1 1 1 1 0 1 1 2 3 4 4 4 4 5 4 4 6 8 8 7 6 6 7 7 9 11 9 6 6 5 4 5
9 8 8 7 7 6 5 3 2 1 1 1 1 1 0 1 1 2 4 5 6 7 6 6 6 6 6 8 10 9 9 9 9 11 7 5 6 7 7 7 6 5 5
9 8 8 7 6 5 4 3 1 1 2 2 1 1 0 1 0 2 4 5 4 4 2 3 6 4 5 8 10 10 11 12 13 10 6 7 7 8 8 8 8 8 8
Wind_Direction
86 83 94 117 138 155 169 178 186 183 184 185 187 184 180 169 154 140 135 156 167 153 157 177 155 197 208 194 180 178 192 245 287 264 249 239 251 281 292 296 295 289 306
79 73 71 83 108 133 152 173 186 184 186 183 182 173 150 141 128 113 92 76 74 85 110 96 91 116 170 179 174 188 209 188 259 269 266 248 210 201 209 255 260 307 285
77 73 67 63 67 73 98 135 170 177 180 172 166 148 137 137 138 121 91 60 54 55 60 73 66 65 58 86 40 268 242 215 173 318 285 278 264 205 176 168 40 340 336
73 68 63 56 51 49 56 68 83 105 133 158 166 165 162 151 124 106 92 72 57 53 52 58 58 53 49 45 38 28 347 321 192 114 18 2 346 302 256 191 153 68 335
72 66 60 57 51 49 56 64 70 69 79 106 134 138 122 109 103 94 85 73 61 56 57 58 59 57 55 53 51 47 39 38 32 35 26 12 348 314 292 276 247 248 275
72 68 64 60 54 52 54 58 64 62 64 75 88 103 112 111 105 98 92 80 72 67 65 67 65 63 60 59 58 56 54 48 47 38 28 8 353 345 322 302 285 280 272
73 67 62 60 58 56 57 60 65 63 62 68 73 81 90 95 96 95 91 88 81 72 66 67 66 66 65 64 62 62 55 50 48 40 29 19 9 347 329 310 304 295 279
76 71 66 64 63 62 62 66 69 69 67 68 70 73 78 82 82 81 83 80 78 75 73 70 68 66 63 62 59 60 56 50 47 41 27 2 8 346 334 323 313 299 284
81 77 71 67 66 65 64 68 73 73 73 75 76 75 76 80 84 85 83 82 82 82 76 73 69 63 59 56 55 57 47 39 31 25 19 358 356 336 331 320 314 308 303
89 83 77 74 71 71 71 70 72 74 74 76 79 82 82 83 85 84 83 84 84 84 82 76 72 67 61 53 45 53 45 35 33 17 10 349 345 335 316 311 307 302 302
98 92 87 82 80 78 76 76 77 77 77 77 80 81 82 84 86 87 89 88 85 82 78 75 72 66 59 53 47 42 37 27 21 7 2 352 341 329 320 313 307 305 304
103 98 94 89 86 82 80 78 79 80 82 83 83 83 83 84 85 85 85 86 83 80 78 75 70 65 59 50 42 33 27 19 10 1 349 341 334 327 312 318 312 309 307
109 103 98 93 89 87 86 84 82 84 86 87 87 86 85 85 85 86 85 83 82 78 74 70 66 59 53 47 38 27 19 10 2 352 343 337 332 325 329 316 311 309 304
116 111 105 99 95 92 90 90 89 89 89 89 88 86 85 85 86 86 84 83 82 78 72 66 61 52 43 34 22 16 9 359 353 347 338 335 335 333 328 313 314 313 309
121 117 112 108 104 99 95 93 92 92 93 94 92 91 92 92 91 88 84 81 76 72 65 58 53 42 43 30 7 353 357 351 344 342 337 340 340 333 324 321 325 318 312
127 123 117 113 108 104 102 100 99 99 99 96 95 95 96 94 91 88 85 79 70 61 53 45 36 32 43 39 7 343 339 338 340 340 336 327 304 333 292 285 293 297 299
127 123 119 115 112 110 110 108 108 108 104 100 99 100 97 93 91 88 81 70 61 52 42 33 25 28 56 33 1 343 320 328 339 334 332 330 347 321 332 317 289 275 258
126 122 119 118 117 117 117 116 115 112 107 104 102 99 97 93 86 77 68 57 47 39 33 24 17 16 56 36 358 333 308 328 333 332 330 330 330 357 343 320 310 308 305
125 124 125 124 122 124 124 120 116 113 109 104 101 94 89 86 79 69 58 45 33 26 20 28 16 11 52 45 358 333 321 338 339 335 338 333 332 14 335 310 306 313 319
123 126 128 128 129 129 127 123 119 114 107 102 97 90 79 66 60 53 38 37 18 11 6 26 16 12 20 53 1 335 330 345 339 337 339 7 343 332 317 308 309 317 326
128 131 132 132 129 130 129 123 116 109 105 104 97 87 70 57 45 38 27 4 357 9 3 8 13 25 21 54 35 343 335 341 333 334 338 353 348 324 313 300 296 310 309
132 134 134 131 132 135 133 123 112 111 114 109 101 83 46 13 41 26 357 345 332 324 1 8 12 33 47 29 17 322 307 306 314 324 332 337 328 313 303 299 306 300 291
135 139 137 133 134 135 130 120 117 120 120 114 73 42 20 6 358 331 333 317 322 341 6 9 16 19 14 63 221 281 285 281 295 318 307 296 294 295 290 268 280 288 297
135 140 141 138 135 134 128 124 121 119 115 86 31 342 332 19 89 330 351 358 6 7 15 15 10 6 11 17 4 345 335 322 316 328 305 277 270 272 297 306 304 314 335
140 142 139 135 133 135 134 137 137 200 262 300 311 308 340 80 96 69 35 12 46 31 1 5 2 2 6 12 342 324 332 335 335 320 314 349 360 360 2 357 356 348 346
141 142 141 138 136 142 141 143 172 267 286 280 277 299 7 74 341 123 126 80 51 93 58 4 341 360 15 334 321 317 311 303 300 305 349 6 2 3 0 354 352 355 356